CZ-6A DEB, 55204

Orbit data source: Space-Track

CZ-6A DEB, 55204 is space debris in SSO originally from a launch on Fri, 11 Nov 2022 UTC launched from the Taiyaun Space Center, China (TSC). Debris objects in space refer to the collection of defunct objects orbiting the Earth. Examples of debris include non-operational satellites, rocket bodies, and fragments generated from explosions, collisions, or faulty payload assembly.

Loading next visibility...
Identifier
55204, 2022-151VV
Orbit
SSO
Country
Flag of CNCN / PRC
Related business
Manufacturer
SAST
Mission
Spacecraft
Bus & Motor
Unknown
Mass
Unknown
Launch date (UTC)
2022-11-11 (4 years ago)
Launch vehicle
Unknown
Launch site
Taiyaun Space Center, China (TSC)
Object type
Payload
Rocket body
Debris
Shape & HBR
Unknown shape, 0.1 m
Radar Cross Section
Small (<0.1 m²)

Expand to show TLE details & history
Last TLE update: 13 hours ago

TLE from 13 hours ago
0 CZ-6A DEB
1 55204U 22151VV  26236.18066282  .00024844  00000-0  24658-2 0  9998
2 55204  98.6147 317.8996 0052734  31.8105 328.6278 14.90686825195971
Epoch: 2026-08-24T04:20Z
TLE epoch observation values (Epoch: 2026-08-24T04:20:09.267Z)
Latitude
0.00002°
Longitude
-79.60508°
Altitude
567.453 km
Speed
7.594 km/s
True Right ascension
21h 11m 35s
True Declination
0° 00' 00"
Sunlit
Object was in full shadow at epoch
Visualization orbit readout
Latitude
Unknown
Longitude
Unknown
Altitude
Unknown
Speed
Unknown
Apparent Right ascension
Unknown
Apparent Declination
Unknown
Sunlit
N/A
Visualization observer readout
Local Sidereal Time
08:05:37
Azimuth
Unknown
Elevation
Unknown
Doppler factor
Unknown
Orbital elements
Apogee altitude
629.614 km
Perigee altitude
556.092 km
Semi-major axis
6,970.99 km
Eccentricity
0.00527
Inclination
98.6147°
RAAN
317.8996°
Arg. of periapsis
31.8105°
True anomaly
328.31143°
Mean anomaly
328.6278°
Eccentric anomaly
328.46979°
Mean motion
3.72908 °/min
Orbital period
96.54 mins
BSTAR
0.0024658
Loading maneuver chart data...
Computing Atmospheric mass density...
Loading historical data...
Loading historical data...
Loading historical data...
Loading historical data...
Loading historical data...
Loading historical data...
Loading historical data...

Documentation

Showing up to 5 results
|